{"data":{"norad_id":67326,"intl_designator":"2026-002X","name":"STARLINK-36430","alt_names":[],"object_type":"PAYLOAD","status":"ACTIVE","operator":null,"country":"US","launch_date":"2026-01-04","launch_site_code":"AFETR","launch_vehicle":null,"mission":null,"orbit_class":"UNKNOWN","rcs_meters":null,"size_class":null,"mass_kg":null,"dimensions":null,"purposes":["comms"],"wikipedia_slug":null,"has_3d_model":false,"image_url":null,"decayed_at":null,"tle_current":{"epoch":"2026-09-19T10:18:30.459744Z","epoch_age_seconds":167886,"freshness":"FRESH","line1":"1 67326U 26002X   26262.42951921  .00002881  00000+0  11416-3 0  9999","line2":"2 67326  43.0006 310.7132 0000983 272.4016  87.6723 15.27582856 40879","mean_motion":15.27582856,"eccentricity":9.83e-5,"inclination_deg":43.0006,"raan_deg":310.7132,"arg_perigee_deg":272.4016,"mean_anomaly_deg":87.6723,"bstar":0.00011416,"rev_number":4087,"period_min":94.26657247062,"perigee_km":482.36609040895,"apogee_km":483.71499791413,"semimajor_km":6861.1775441615,"source":"CELESTRAK","updated_at":"2026-09-20T09:00:43.508068Z"}}}